Погода в Старых Зятцах

Россия / Удмуртская Республика     57°20′51″N   52°38′48″E
темп.,
°C
ветер,
м/с
пор.,
м/с
влажн.,
%
обл.,
%
осадки,
мм/ч
давл.,
гПа
погр.,
м
18 апреля, вс
вс1801:00+1ссз22895 0.0 102318
04:000ссз23905 0.0 102444
07:00+3ссз28813 0.0 1023186
10:00+6св5675100 0.0 1024972
13:00+5св565355 0.0 10261360
16:00+5св57425 0.0 10271525
19:00+3св49551 0.0 1029680
22:00+1всв512645 0.0 1030656
19 апреля, пн
пн1901:00−1всв412636 0.0 1032489
04:00−2всв4116256 0.0 1033436
07:00−1всв410510 0.0 1034894
10:00+3в69300 0.0 10341391
13:00+5в57280 0.0 10341606
16:00+5в57290 0.0 10331656
19:00+3в37450 0.0 1034233
22:00−1в27610 0.0 1035127
20 апреля, вт
вт2001:00−2в27620 0.0 1036132
04:00−2в25610 0.0 1037108
07:00+1вюв24480 0.0 1037203
10:00+5юв23290 0.0 10371105
13:00+8юв23260 0.0 10361369
16:00+8юв23280 0.0 10341335
19:00+5юв11440 0.0 103410
22:00+2вюв22530 0.0 103423
21 апреля, ср
ср2101:000вюв22570 0.0 103417
04:000юв22590 0.0 103515
07:00+3юв275013 0.0 1034205
10:00+8ююв473382 0.0 1033932
13:00+10ююв582973 0.0 10311274
16:00+11ююв5830100 0.0 10301388
19:00+9ююв41140100 0.0 1030530
22:00+6ююв41350100 0.0 1030408
22 апреля, чт
чт2201:00+5ююв4145398 0.0 1029454
04:00+4ююв41355100 0.0 1030466
07:00+5ю41258100 0.0 1030847
10:00+3ю51292100 0.3 1031701
13:00+5ю51180100 0.3 1032903
16:00+8ююз486799 0.5 1031999
19:00+6ююз3107796 0.0 1031879
22:00+5ююз3987100 0.0 1032664